This is the latest recevied weather packets stored in our database for station/object SP9EPI-13. If no packets are shown the sender has not sent any weather packets the latest 10 day(s).
| Time | Temp. | Humidity | Pressure | Rain* | Wind** | Luminosity | Snow |
|---|---|---|---|---|---|---|---|
| 1777444201 | 6.11° C | 73% | 1020.6 hPa | - | - | - | - |
| 1777443601 | 7.22° C | 72% | 1020.6 hPa | - | - | - | - |
| 1777443001 | 6.11° C | 73% | 1020.3 hPa | - | - | - | - |
| 1777442401 | 5° C | 78% | 1020.3 hPa | - | - | - | - |
| 1777441800 | 3.89° C | 82% | 1020.3 hPa | - | - | - | - |
| 1777441200 | 3.89° C | 81% | 1020.3 hPa | - | - | - | - |
| 1777440601 | 5° C | 79% | 1019.9 hPa | - | - | - | - |
| 1777440001 | 2.78° C | 83% | 1019.9 hPa | - | - | - | - |
| 1777439400 | 2.78° C | 90% | 1019.9 hPa | - | - | - | - |
| 1777438801 | 2.22° C | 98% | 1019.9 hPa | - | - | - | - |
| 1777438200 | 1.11° C | 99% | 1019.9 hPa | - | - | - | - |
| 1777437601 | 0° C | 99% | 1019.9 hPa | - | - | - | - |
| 1777437001 | -1.11° C | 99% | 1019.9 hPa | - | - | - | - |
| 1777436400 | -2.22° C | 99% | 1019.9 hPa | - | - | - | - |
| 1777435801 | -3.89° C | 99% | 1019.9 hPa | - | - | - | - |
| 1777435201 | -3.89° C | 99% | 1019.9 hPa | - | - | - | - |
| 1777434601 | -3.89° C | 99% | 1019.9 hPa | - | - | - | - |
| 1777434001 | -5° C | 99% | 1019.9 hPa | - | - | - | - |
| 1777433401 | -3.89° C | 99% | 1019.9 hPa | - | - | - | - |
| 1777432801 | -3.89° C | 99% | 1019.9 hPa | - | - | - | - |
| 1777432201 | -3.89° C | 99% | 1019.9 hPa | - | - | - | - |
| 1777431601 | -3.89° C | 99% | 1019.9 hPa | - | - | - | - |
| 1777431001 | -3.89° C | 99% | 1019.9 hPa | - | - | - | - |
| 1777430401 | -3.89° C | 99% | 1019.9 hPa | - | - | - | - |
| 1777429801 | -3.89° C | 99% | 1019.9 hPa | - | - | - | - |
* Rain since midnight (hover to see other rain measurements)
** Current wind speed in m/s (hover to see current wind gust speed)